IGO522 VOHS-VAPO

Flight info

Callsign IGO522
Flight time 0h 44m
Altitude 34000
Route TAMIV5 GODEP W28 LUKTI
Aircraft A20N/M-SDE2E3FGHIRWXY/LB1

Departure

Time 2026-05-04 09:11
Airport Rajiv Gandhi International Airport (VOHS)

Arrival

Time 2026-05-04 09:56
Airport Pune International Airport (VAPO)
Time Latitude Longitude Altitude Speed Heading
2026-05-04 08:37 17.23422 78.42806 1998 ft 0 kts 358°
2026-05-04 09:01 17.23329 78.42785 1994 ft 0 kts 86°
2026-05-04 09:01 17.23330 78.42795 1995 ft 3 kts 86°
2026-05-04 09:01 17.23330 78.42804 1995 ft 0 kts 86°
2026-05-04 09:03 17.23330 78.42808 1998 ft 3 kts 87°
2026-05-04 09:03 17.23331 78.42862 1998 ft 11 kts 89°
2026-05-04 09:03 17.23331 78.42959 1997 ft 15 kts 89°
2026-05-04 09:04 17.23333 78.43069 1997 ft 12 kts 89°
2026-05-04 09:04 17.23332 78.43133 1997 ft 8 kts 98°
2026-05-04 09:04 17.23286 78.43161 1997 ft 10 kts 172°
2026-05-04 09:04 17.23188 78.43163 1992 ft 16 kts 180°
2026-05-04 09:05 17.23098 78.43193 1994 ft 12 kts 125°
2026-05-04 09:05 17.23086 78.43288 1993 ft 15 kts 90°
2026-05-04 09:05 17.23087 78.43406 1993 ft 17 kts 89°
2026-05-04 09:05 17.23088 78.43534 1995 ft 18 kts 89°
2026-05-04 09:06 17.23090 78.43670 1981 ft 20 kts 89°
2026-05-04 09:07 17.23107 78.44824 1994 ft 12 kts 88°
2026-05-04 09:08 17.23076 78.44906 1994 ft 13 kts 145°
2026-05-04 09:08 17.23005 78.44929 1995 ft 0 kts 174°
2026-05-04 09:09 17.23000 78.44930 1995 ft 2 kts 175°
2026-05-04 09:09 17.22966 78.44926 1995 ft 5 kts 193°
2026-05-04 09:09 17.22927 78.44904 1995 ft 7 kts 219°
2026-05-04 09:10 17.22905 78.44852 1996 ft 9 kts 263°
2026-05-04 09:10 17.22904 78.44848 1996 ft 0 kts 264°
2026-05-04 09:10 17.22904 78.44846 1996 ft 2 kts 265°
2026-05-04 09:10 17.22902 78.44687 1995 ft 54 kts 269°
2026-05-04 09:11 17.22895 78.44054 1994 ft 117 kts 269°
2026-05-04 09:11 17.22881 78.43032 2002 ft 163 kts 270°
2026-05-04 09:11 17.22842 78.41893 2675 ft 152 kts 269°
2026-05-04 09:11 17.22767 78.40780 3260 ft 161 kts 266°
2026-05-04 09:12 17.22651 78.39431 3509 ft 204 kts 265°
2026-05-04 09:12 17.22492 78.37795 3653 ft 258 kts 267°
2026-05-04 09:14 17.25225 78.24145 9148 ft 288 kts 288°
2026-05-04 09:14 17.25824 78.22136 9952 ft 291 kts 288°
2026-05-04 09:14 17.26436 78.20054 10383 ft 310 kts 287°
2026-05-04 09:14 17.27090 78.17815 10592 ft 334 kts 287°
2026-05-04 09:15 17.27783 78.15437 11035 ft 346 kts 287°
2026-05-04 09:15 17.28490 78.13009 11764 ft 351 kts 286°
2026-05-04 09:15 17.29205 78.10553 12474 ft 356 kts 286°
2026-05-04 09:15 17.29930 78.08062 13190 ft 360 kts 285°
2026-05-04 09:17 17.35942 77.87158 18410 ft 388 kts 287°
2026-05-04 09:18 17.36721 77.84444 18959 ft 391 kts 287°
2026-05-04 09:18 17.37509 77.81715 19512 ft 393 kts 287°
2026-05-04 09:18 17.38304 77.78969 20061 ft 396 kts 286°
2026-05-04 09:18 17.39106 77.76202 20592 ft 398 kts 286°
2026-05-04 09:19 17.39913 77.73419 21116 ft 401 kts 286°
2026-05-04 09:19 17.40726 77.70616 21638 ft 403 kts 285°
2026-05-04 09:19 17.41543 77.67793 22122 ft 407 kts 285°
2026-05-04 09:19 17.42366 77.64947 22595 ft 410 kts 285°
2026-05-04 09:20 17.43196 77.62072 23080 ft 413 kts 285°
2026-05-04 09:20 17.43932 77.59157 23525 ft 416 kts 280°
2026-05-04 09:20 17.44385 77.56161 23918 ft 417 kts 276°
2026-05-04 09:20 17.44752 77.53142 24323 ft 419 kts 276°
2026-05-04 09:21 17.45111 77.50113 24732 ft 421 kts 276°
2026-05-04 09:21 17.45478 77.47065 25125 ft 422 kts 276°
2026-05-04 09:21 17.45855 77.44011 25524 ft 424 kts 276°
2026-05-04 09:21 17.46240 77.40937 25883 ft 426 kts 276°
2026-05-04 09:22 17.46631 77.37851 26249 ft 428 kts 276°
2026-05-04 09:22 17.47026 77.34751 26603 ft 430 kts 276°
2026-05-04 09:22 17.47422 77.31641 26946 ft 432 kts 276°
2026-05-04 09:22 17.47819 77.28521 27281 ft 433 kts 276°
2026-05-04 09:23 17.48218 77.25383 27612 ft 435 kts 276°
2026-05-04 09:23 17.48617 77.22238 27940 ft 437 kts 276°
2026-05-04 09:23 17.49018 77.19077 28260 ft 438 kts 276°
2026-05-04 09:23 17.49419 77.15907 28564 ft 440 kts 276°
2026-05-04 09:25 17.52253 76.93365 30484 ft 451 kts 276°
2026-05-04 09:25 17.52656 76.90144 30718 ft 453 kts 276°
2026-05-04 09:26 17.53064 76.86866 30972 ft 454 kts 276°
2026-05-04 09:26 17.53472 76.83587 31292 ft 454 kts 276°
2026-05-04 09:26 17.53879 76.80313 31615 ft 453 kts 276°
2026-05-04 09:26 17.54284 76.77043 31943 ft 452 kts 276°
2026-05-04 09:27 17.54688 76.73781 32266 ft 451 kts 276°
2026-05-04 09:27 17.55091 76.70523 32570 ft 451 kts 276°
2026-05-04 09:27 17.55493 76.67267 32889 ft 450 kts 276°
2026-05-04 09:27 17.55946 76.64026 33197 ft 449 kts 278°
2026-05-04 09:28 17.56502 76.60811 33497 ft 449 kts 280°
2026-05-04 09:28 17.57097 76.57606 33771 ft 448 kts 280°
2026-05-04 09:28 17.58294 76.51203 33845 ft 446 kts 280°
2026-05-04 09:29 17.59458 76.44818 33846 ft 446 kts 280°
2026-05-04 09:29 17.60605 76.38419 33845 ft 446 kts 280°
2026-05-04 09:30 17.61736 76.32072 33843 ft 446 kts 280°
2026-05-04 09:30 17.62873 76.25678 33847 ft 446 kts 280°
2026-05-04 09:31 17.64008 76.19285 33850 ft 446 kts 280°
2026-05-04 09:31 17.65139 76.12891 33856 ft 446 kts 280°
2026-05-04 09:32 17.66269 76.06494 33860 ft 446 kts 280°
2026-05-04 09:34 17.73906 75.85277 33856 ft 446 kts 294°
2026-05-04 09:34 17.75219 75.82333 33856 ft 446 kts 294°
2026-05-04 09:34 17.77827 75.76425 33847 ft 446 kts 294°
2026-05-04 09:35 17.80420 75.70520 33839 ft 445 kts 294°
2026-05-04 09:35 17.83008 75.64618 33834 ft 445 kts 294°
2026-05-04 09:37 17.92101 75.43856 30919 ft 462 kts 294°
2026-05-04 09:37 17.93448 75.40778 30113 ft 464 kts 294°
2026-05-04 09:38 17.94771 75.37756 29552 ft 458 kts 294°
2026-05-04 09:38 17.96104 75.34708 29033 ft 449 kts 294°
2026-05-04 09:38 17.97382 75.31786 28438 ft 444 kts 293°
2026-05-04 09:38 17.98664 75.28851 27839 ft 439 kts 293°
2026-05-04 09:39 17.99929 75.25952 27252 ft 435 kts 293°
2026-05-04 09:39 18.01186 75.23073 26659 ft 431 kts 293°
2026-05-04 09:39 18.02428 75.20223 26061 ft 428 kts 293°
2026-05-04 09:39 18.03662 75.17393 25483 ft 424 kts 293°
2026-05-04 09:40 18.04887 75.14583 24877 ft 422 kts 293°
2026-05-04 09:40 18.06103 75.11790 24288 ft 420 kts 292°
2026-05-04 09:40 18.07312 75.09013 23718 ft 418 kts 292°
2026-05-04 09:40 18.08515 75.06248 23091 ft 415 kts 292°
2026-05-04 09:41 18.09707 75.03505 22551 ft 409 kts 292°
2026-05-04 09:42 18.17672 74.85074 18665 ft 385 kts 294°
2026-05-04 09:43 18.18774 74.82519 18107 ft 383 kts 294°
2026-05-04 09:43 18.19870 74.79976 17558 ft 379 kts 294°
2026-05-04 09:43 18.20954 74.77467 17020 ft 375 kts 294°
2026-05-04 09:43 18.22028 74.74983 16479 ft 371 kts 294°
2026-05-04 09:44 18.23094 74.72521 15955 ft 368 kts 294°
2026-05-04 09:44 18.24165 74.70089 15430 ft 365 kts 296°
2026-05-04 09:44 18.25412 74.67771 14908 ft 363 kts 300°
2026-05-04 09:46 18.34282 74.52271 11318 ft 341 kts 301°
2026-05-04 09:46 18.35492 74.50128 10823 ft 339 kts 301°
2026-05-04 09:46 18.36693 74.48000 10337 ft 337 kts 301°
2026-05-04 09:47 18.37875 74.45903 10107 ft 326 kts 301°
2026-05-04 09:47 18.39009 74.43891 10005 ft 313 kts 302°
2026-05-04 09:49 18.46233 74.31140 7816 ft 281 kts 302°
2026-05-04 09:49 18.47235 74.29382 7433 ft 279 kts 301°
2026-05-04 09:49 18.48226 74.27638 7137 ft 275 kts 301°
2026-05-04 09:51 18.54034 74.17399 5111 ft 262 kts 300°
2026-05-04 09:51 18.54950 74.15780 5018 ft 252 kts 300°
2026-05-04 09:51 18.55827 74.14214 4840 ft 245 kts 300°
2026-05-04 09:51 18.56637 74.12617 4320 ft 251 kts 292°
2026-05-04 09:52 18.57098 74.10829 3882 ft 253 kts 277°
2026-05-04 09:52 18.57212 74.09024 3736 ft 238 kts 272°
2026-05-04 09:52 18.57285 74.07375 3707 ft 209 kts 272°
2026-05-04 09:52 18.57365 74.05845 3717 ft 213 kts 274°
2026-05-04 09:53 18.57457 74.04375 3706 ft 189 kts 274°
2026-05-04 09:53 18.57540 74.03003 3704 ft 189 kts 274°
2026-05-04 09:53 18.57624 74.01646 3534 ft 177 kts 274°
2026-05-04 09:53 18.57701 74.00399 3277 ft 162 kts 274°
2026-05-04 09:54 18.57747 73.99622 3129 ft 152 kts 276°
2026-05-04 09:54 18.57813 73.98575 2949 ft 136 kts 275°
2026-05-04 09:54 18.57876 73.97625 2787 ft 127 kts 271°
2026-05-04 09:54 18.57933 73.96685 2623 ft 128 kts 273°
2026-05-04 09:55 18.57993 73.95736 2476 ft 133 kts 274°
2026-05-04 09:55 18.58052 73.94787 2302 ft 125 kts 273°
2026-05-04 09:55 18.58106 73.93895 2132 ft 123 kts 273°
2026-05-04 09:55 18.58163 73.92971 1980 ft 130 kts 273°
2026-05-04 09:56 18.58219 73.92062 1923 ft 100 kts 274°
2026-05-04 09:56 18.58245 73.91648 1923 ft 27 kts 273°
2026-05-04 09:56 18.58252 73.91518 1923 ft 9 kts 273°
2026-05-04 09:56 18.58252 73.91519 1923 ft 0 kts 273°
2026-05-04 09:57 18.58253 73.91500 1923 ft 5 kts 273°
2026-05-04 09:57 18.58255 73.91454 1923 ft 8 kts 273°
2026-05-04 09:57 18.58261 73.91388 1923 ft 10 kts 276°
2026-05-04 09:57 18.58269 73.91303 1923 ft 12 kts 275°
2026-05-04 09:58 18.58269 73.91214 1923 ft 12 kts 263°
2026-05-04 09:58 18.58239 73.91126 1923 ft 14 kts 247°
2026-05-04 09:58 18.58190 73.91049 1923 ft 11 kts 189°
2026-05-04 10:00 18.57991 73.90964 1923 ft 0 kts 187°